Location: Newark
(41.7772°N, 74.7403°W)
Time: 22:16:34
(UTC+00:00)

Vanguard 1 - Visible Passes

Search period start: 25 May 2020 00:00
Search period end: 04 June 2020 00:00
Orbit: 649 x 3834 km, 34.3° (Epoch: 23 May)

Date Brightness Start Highest point End Pass type
(mag) Time Alt. Az. Time Alt. Az. Time Alt. Az.
25 May 13.8 08:00:38 10° SE 08:03:12 10° ESE 08:05:52 10° ESE visible
26 May 13.7 08:13:52 10° SSE 08:23:12 16° SE 08:34:15 10° E visible
27 May 13.5 08:31:26 10° S 08:43:16 23° SE 08:58:12 10° E visible
28 May 13.3 08:50:10 10° S 09:03:26 30° SE 09:20:59 10° E visible
30 May 13.4 07:16:49 10° SSE 07:23:41 14° ESE 07:31:57 10° E visible
31 May 13.2 07:34:06 10° SSE 07:43:38 21° SE 07:56:19 10° E visible
01 Jun 13.0 07:52:46 10° S 08:03:43 27° SE 08:19:16 10° E visible
02 Jun 12.9 08:12:06 10° SSW 08:23:55 35° SE 08:41:35 10° E visible
03 Jun 13.2 06:21:09 10° SE 06:24:45 11° ESE 06:28:48 10° ESE visible
03 Jun 12.8 08:31:53 10° SSW 08:44:18 42° SE 09:03:33 10° E visible
